Location: De Har
(53.3413°N, 6.6858°E)
Time: 16:33:23
(UTC+00:00)

SL-4 R/B - Pass Details

Date: 22 April 2026
Orbit: 380 x 506 km, 51.6° (Epoch: 9 May)

Event Time Altitude Azimuth Distance (km) Brightness Sun altitude
Exits shadow 01:31:48 23° 137° (SE) 1,099 3.4 -19.7°
Drops below altitude 10° 01:33:26 10° 126° (SE) 1,692 4.5 -19.5°
Sets 01:35:37 0° 120° (ESE) 2,557 5.5 -19.4°
